DELTA 1 DEB, 10306

Orbit data source: Space-Track

DELTA 1 DEB, 10306 is space debris in LEO originally from a launch on Thu, 14 Jul 1977 UTC launched from the Air Force Eastern Test Range (AFETR). Debris objects in space refer to the collection of defunct objects orbiting the Earth. Examples of debris include non-operational satellites, rocket bodies, and fragments generated from explosions, collisions, or faulty payload assembly.

Loading next visibility...
Identifier
10306, 1977-065DC
Orbit
LEO
Country
Flag of USUS
Related business
Manufacturer
Unknown
Mission
Spacecraft
Bus & Motor
Unknown
Mass
Unknown
Launch date (UTC)
1977-07-14 (49 years ago)
Launch vehicle
Unknown
Launch site
Air Force Eastern Test Range (AFETR)
Object type
Payload
Rocket body
Debris
Shape & HBR
Unknown shape, 0.2 m
Radar Cross Section
Medium (>0.1 m² and <1 m²)

Expand to show TLE details & history
Last TLE update: 6 days ago

TLE from 6 days ago
0 DELTA 1 DEB
1 10306U 77065DC  26257.50443890  .00002915  00000-0  69608-3 0  9999
2 10306  29.1099 353.4042 0650969 211.9486 143.9972 13.68397780403283
Epoch: 2026-09-14T12:06Z
TLE epoch observation values (Epoch: 2026-09-14T12:06:23.520Z)
Latitude
-0.00005°
Longitude
178.32233°
Altitude
1,402.475 km
Speed
6.965 km/s
True Right ascension
23h 33m 36s
True Declination
0° 00' 00"
Sunlit
Object was in full shadow at epoch
Visualization orbit readout
Latitude
Unknown
Longitude
Unknown
Altitude
Unknown
Speed
Unknown
Apparent Right ascension
Unknown
Apparent Declination
Unknown
Sunlit
N/A
Visualization observer readout
Local Sidereal Time
04:42:01
Azimuth
Unknown
Elevation
Unknown
Doppler factor
Unknown
Orbital elements
Apogee altitude
1,490.1 km
Perigee altitude
528.314 km
Semi-major axis
7,387.344 km
Eccentricity
0.0651
Inclination
29.1099°
RAAN
353.4042°
Arg. of periapsis
211.9486°
True anomaly
148.10719°
Mean anomaly
143.9972°
Eccentric anomaly
146.07862°
Mean motion
3.4183 °/min
Orbital period
105.32 mins
BSTAR
0.00069608
Loading maneuver chart data...
Computing Atmospheric mass density...

Documentation

Showing up to 5 results
|